Location: L�Ave Maria
(50.7161°N, 1.5911°E)
Time: 12:58:19
(UTC+00:00)

Cosmos 1980 - Pass Details

Date: 10 July 2020
Orbit: 839 x 847 km, 71.0° (Epoch: 06 August)

Event Time Altitude Azimuth Distance (km) Brightness Sun altitude
Rises 22:23:41 0° 223° (SW) 3,383 6.6 -14.2°
Reaches altitude 10° 22:26:10 10° 227° (SW) 2,452 5.9 -14.4°
Maximum altitude 22:31:42 56° 305° (NW) 1,001 4.4 -14.7°
Drops below altitude 10° 22:37:16 10° 24° (NNE) 2,469 6.8 -15.0°
Sets 22:39:47 0° 29° (NNE) 3,409 7.5 -15.1°
